| time (UTC) | temp F | wind direction | speed MPH | gust MPH | rain 1hr in | rain 24hr in | rain mn in | humidity % | barometer mb |
| 20260902073515 | 80 | 20 | 0.0 | 3.0 | 0.00 | 0.00 | 0.00 | 73 | 1018.5 |
| 20260902073014 | 79 | 19 | 0.0 | 4.0 | 0.00 | 0.00 | 0.00 | 72 | 1018.4 |
| 20260902072512 | 78 | 28 | 2.0 | 4.0 | 0.00 | 0.00 | 0.00 | 74 | 1018.3 |
| 20260902072016 | 78 | 16 | 1.0 | 2.0 | 0.00 | 0.00 | 0.00 | 75 | 1018.4 |
| 20260902071510 | 77 | 16 | 0.0 | 1.0 | 0.00 | 0.00 | 0.00 | 77 | 1018.5 |
| 20260902071008 | 77 | 16 | 0.0 | 2.0 | 0.00 | 0.00 | 0.00 | 78 | 1018.4 |
| 20260902070506 | 76 | 16 | 0.0 | 3.0 | 0.00 | 0.00 | 0.00 | 78 | 1018.3 |
| 20260902070007 | 76 | 15 | 1.0 | 4.0 | 0.00 | 0.00 | 0.00 | 77 | 1018.3 |
| 20260902065507 | 76 | 15 | 2.0 | 4.0 | 0.00 | 0.00 | 0.00 | 77 | 1018.2 |
| 20260902065003 | 75 | 5 | 2.0 | 5.0 | 0.00 | 0.00 | 0.00 | 77 | 1018.1 |
| 20260902064502 | 75 | 5 | 2.0 | 5.0 | 0.00 | 0.00 | 0.00 | 77 | 1018.2 |
| 20260902064100 | 75 | 5 | 3.0 | 5.0 | 0.00 | 0.00 | 0.00 | 77 | 1018.1 |
| 20260902063559 | 75 | 330 | 2.0 | 6.0 | 0.00 | 0.00 | 0.00 | 78 | 1018.1 |
| 20260902063103 | 75 | 335 | 2.0 | 8.0 | 0.00 | 0.00 | 0.00 | 79 | 1017.9 |
| 20260902062601 | 75 | 346 | 3.0 | 8.0 | 0.00 | 0.00 | 0.00 | 79 | 1017.8 |
| 20260902062056 | 75 | 342 | 5.0 | 8.0 | 0.00 | 0.00 | 0.00 | 79 | 1017.8 |
| 20260902061559 | 75 | 332 | 3.0 | 8.0 | 0.00 | 0.00 | 0.00 | 79 | 1017.9 |
| 20260902061058 | 75 | 355 | 4.0 | 6.0 | 0.00 | 0.00 | 0.00 | 79 | 1018.0 |
| 20260902060554 | 75 | 355 | 3.0 | 8.0 | 0.00 | 0.00 | 0.00 | 80 | 1018.0 |
| 20260902060055 | 74 | 360 | 4.0 | 8.0 | 0.00 | 0.00 | 0.00 | 80 | 1018.2 |
| 20260902055552 | 74 | 355 | 4.0 | 8.0 | 0.00 | 0.00 | 0.00 | 81 | 1018.1 |
| 20260902055051 | 74 | 355 | 3.0 | 8.0 | 0.00 | 0.00 | 0.00 | 81 | 1018.2 |
| 20260902054551 | 74 | 349 | 4.0 | 8.0 | 0.00 | 0.00 | 0.00 | 81 | 1018.2 |
| 20260902054050 | 74 | 5 | 4.0 | 8.0 | 0.00 | 0.00 | 0.00 | 82 | 1018.3 |
| 20260902053550 | 73 | 346 | 4.0 | 8.0 | 0.00 | 0.00 | 0.00 | 82 | 1018.3 |
| 20260902053055 | 73 | 355 | 4.0 | 9.0 | 0.00 | 0.00 | 0.00 | 83 | 1018.5 |
| 20260902052549 | 73 | 320 | 3.0 | 6.0 | 0.00 | 0.00 | 0.00 | 83 | 1018.5 |
| 20260902052049 | 73 | 333 | 3.0 | 8.0 | 0.00 | 0.00 | 0.00 | 84 | 1018.5 |
| 20260902051551 | 73 | 333 | 3.0 | 6.0 | 0.00 | 0.00 | 0.00 | 84 | 1018.6 |
| 20260902051049 | 73 | 5 | 2.0 | 5.0 | 0.00 | 0.00 | 0.00 | 84 | 1018.7 |
| 20260902050549 | 74 | 348 | 2.0 | 4.0 | 0.00 | 0.00 | 0.00 | 85 | 1018.6 |
| 20260902050048 | 74 | 14 | 0.0 | 0.0 | 0.00 | 0.00 | 0.00 | 86 | 1018.7 |
| 20260902045548 | 74 | 14 | 0.0 | 0.0 | 0.00 | 0.00 | 0.00 | 86 | 1018.6 |
| 20260902045048 | 74 | 14 | 0.0 | 1.0 | 0.00 | 0.00 | 0.00 | 85 | 1018.4 |
| 20260902044548 | 74 | 14 | 0.0 | 1.0 | 0.00 | 0.00 | 0.00 | 85 | 1018.4 |
| 20260902044047 | 74 | 14 | 0.0 | 1.0 | 0.00 | 0.00 | 0.00 | 85 | 1018.3 |
| 20260902043547 | 74 | 14 | 0.0 | 2.0 | 0.00 | 0.00 | 0.00 | 84 | 1018.3 |
| 20260902043047 | 74 | 13 | 0.0 | 2.0 | 0.00 | 0.00 | 0.00 | 83 | 1018.1 |
| 20260902042546 | 74 | 11 | 0.0 | 1.0 | 0.00 | 0.00 | 0.00 | 81 | 1018.0 |
| 20260902042046 | 74 | 11 | 0.0 | 3.0 | 0.00 | 0.00 | 0.00 | 81 | 1017.8 |
| 20260902041546 | 74 | 11 | 1.0 | 3.0 | 0.00 | 0.00 | 0.00 | 81 | 1017.7 |
| 20260902041045 | 74 | 17 | 0.0 | 3.0 | 0.00 | 0.00 | 0.00 | 81 | 1017.7 |
| 20260902040545 | 74 | 16 | 2.0 | 4.0 | 0.00 | 0.00 | 0.00 | 82 | 1017.8 |
| 20260902040045 | 74 | 17 | 2.0 | 4.0 | 0.00 | 0.00 | 0.00 | 82 | 1017.7 |
| 20260902035544 | 74 | 17 | 2.0 | 5.0 | 0.00 | 0.00 | 0.00 | 82 | 1017.7 |
| 20260902035044 | 74 | 355 | 3.0 | 5.0 | 0.00 | 0.00 | 0.00 | 83 | 1017.6 |
| 20260902034555 | 74 | 360 | 3.0 | 6.0 | 0.00 | 0.00 | 0.00 | 84 | 1017.7 |
| 20260902034043 | 74 | 5 | 3.0 | 8.0 | 0.00 | 0.00 | 0.00 | 85 | 1017.7 |
| 20260902033546 | 73 | 360 | 4.0 | 8.0 | 0.00 | 0.00 | 0.00 | 86 | 1017.8 |
| 20260902033054 | 73 | 341 | 5.0 | 8.0 | 0.00 | 0.00 | 0.00 | 87 | 1017.9 |
| 20260902032541 | 73 | 355 | 3.0 | 6.0 | 0.00 | 0.00 | 0.00 | 88 | 1017.9 |
| 20260902032040 | 73 | 319 | 1.0 | 3.0 | 0.00 | 0.00 | 0.00 | 89 | 1018.0 |
| 20260902031539 | 74 | 332 | 1.0 | 3.0 | 0.00 | 0.00 | 0.00 | 89 | 1018.1 |
| 20260902031039 | 74 | 344 | 0.0 | 1.0 | 0.00 | 0.00 | 0.00 | 89 | 1018.2 |
| 20260902030542 | 74 | 344 | 0.0 | 1.0 | 0.00 | 0.00 | 0.00 | 89 | 1018.3 |
| 20260902030038 | 74 | 344 | 0.0 | 1.0 | 0.00 | 0.00 | 0.00 | 90 | 1018.3 |
| 20260902025538 | 74 | 343 | 0.0 | 3.0 | 0.00 | 0.00 | 0.00 | 90 | 1018.2 |
| 20260902025038 | 74 | 344 | 0.0 | 3.0 | 0.00 | 0.00 | 0.00 | 90 | 1018.3 |
| 20260902024543 | 74 | 345 | 1.0 | 3.0 | 0.00 | 0.00 | 0.00 | 90 | 1018.2 |
| 20260902024037 | 74 | 25 | 0.0 | 3.0 | 0.00 | 0.00 | 0.00 | 89 | 1018.2 |
| 20260902023536 | 74 | 28 | 0.0 | 2.0 | 0.00 | 0.00 | 0.00 | 90 | 1018.2 |
| 20260902023035 | 74 | 28 | 0.0 | 2.0 | 0.00 | 0.00 | 0.00 | 89 | 1018.3 |
| 20260902022535 | 74 | 28 | 0.0 | 3.0 | 0.00 | 0.00 | 0.00 | 89 | 1018.3 |
| 20260902022034 | 74 | 28 | 1.0 | 3.0 | 0.00 | 0.00 | 0.00 | 89 | 1018.5 |
| 20260902021533 | 74 | 28 | 1.0 | 3.0 | 0.00 | 0.00 | 0.00 | 89 | 1018.6 |
| 20260902021035 | 74 | 42 | 0.0 | 3.0 | 0.00 | 0.00 | 0.00 | 89 | 1018.7 |
| 20260902020536 | 74 | 88 | 0.0 | 0.0 | 0.00 | 0.00 | 0.00 | 89 | 1018.9 |
| 20260902020038 | 75 | 88 | 0.0 | 0.0 | 0.00 | 0.00 | 0.00 | 89 | 1018.9 |
| 20260902015531 | 75 | 88 | 0.0 | 0.0 | 0.00 | 0.00 | 0.00 | 88 | 1018.9 |
| 20260902015031 | 75 | 88 | 0.0 | 0.0 | 0.00 | 0.00 | 0.00 | 88 | 1018.9 |
| 20260902014533 | 75 | 88 | 0.0 | 0.0 | 0.00 | 0.00 | 0.00 | 88 | 1018.7 |
| 20260902014029 | 75 | 88 | 0.0 | 0.0 | 0.00 | 0.00 | 0.00 | 87 | 1018.7 |
| 20260902013528 | 75 | 88 | 0.0 | 0.0 | 0.00 | 0.00 | 0.00 | 87 | 1018.8 |
| 20260902013028 | 75 | 88 | 0.0 | 0.0 | 0.00 | 0.00 | 0.00 | 87 | 1018.7 |
| 20260902012527 | 75 | 88 | 0.0 | 0.0 | 0.00 | 0.00 | 0.00 | 87 | 1018.7 |
| 20260902012026 | 75 | 88 | 0.0 | 0.0 | 0.00 | 0.00 | 0.00 | 87 | 1018.7 |
| 20260902011526 | 75 | 88 | 0.0 | 0.0 | 0.00 | 0.00 | 0.00 | 87 | 1018.7 |
| 20260902011025 | 75 | 88 | 0.0 | 0.0 | 0.00 | 0.00 | 0.00 | 87 | 1018.9 |
| 20260902010528 | 75 | 88 | 0.0 | 0.0 | 0.00 | 0.00 | 0.00 | 87 | 1018.9 |
| 20260902010024 | 76 | 88 | 0.0 | 0.0 | 0.00 | 0.00 | 0.00 | 87 | 1019.0 |
| 20260902005524 | 76 | 88 | 0.0 | 0.0 | 0.00 | 0.00 | 0.00 | 86 | 1019.0 |
| 20260902005022 | 76 | 88 | 0.0 | 0.0 | 0.00 | 0.00 | 0.00 | 86 | 1019.0 |
| 20260902004521 | 76 | 88 | 0.0 | 0.0 | 0.00 | 0.00 | 0.00 | 86 | 1019.2 |
| 20260902004020 | 76 | 88 | 0.0 | 0.0 | 0.00 | 0.00 | 0.00 | 86 | 1019.4 |
| 20260902003519 | 76 | 88 | 0.0 | 0.0 | 0.00 | 0.00 | 0.00 | 86 | 1019.4 |
| 20260902003020 | 76 | 88 | 0.0 | 0.0 | 0.00 | 0.00 | 0.00 | 86 | 1019.5 |
| 20260902002519 | 76 | 160 | 0.0 | 0.0 | 0.00 | 0.00 | 0.00 | 86 | 1019.5 |
| 20260902002018 | 76 | 160 | 0.0 | 0.0 | 0.00 | 0.00 | 0.00 | 86 | 1019.5 |
| 20260902001518 | 76 | 160 | 0.0 | 0.0 | 0.00 | 0.00 | 0.00 | 86 | 1019.5 |
| 20260902001017 | 76 | 160 | 0.0 | 0.0 | 0.00 | 0.00 | 0.00 | 86 | 1019.7 |
| 20260902000517 | 76 | 160 | 0.0 | 0.0 | 0.00 | 0.00 | 0.00 | 86 | 1019.6 |
| 20260902000018 | 76 | 160 | 0.0 | 0.0 | 0.00 | 0.00 | 0.00 | 86 | 1019.9 |
| 20260901235517 | 76 | 160 | 0.0 | 0.0 | 0.00 | 0.00 | 0.00 | 85 | 1019.8 |
| 20260901235016 | 76 | 160 | 0.0 | 0.0 | 0.00 | 0.00 | 0.00 | 85 | 1019.9 |
| 20260901234515 | 77 | 160 | 0.0 | 0.0 | 0.00 | 0.00 | 0.00 | 85 | 1019.9 |
| 20260901234016 | 77 | 160 | 0.0 | 0.0 | 0.00 | 0.00 | 0.00 | 85 | 1019.8 |
| 20260901233517 | 77 | 160 | 0.0 | 0.0 | 0.00 | 0.00 | 0.00 | 85 | 1019.9 |
| 20260901233026 | 77 | 160 | 0.0 | 0.0 | 0.00 | 0.00 | 0.00 | 85 | 1020.0 |
| 20260901232514 | 77 | 160 | 0.0 | 0.0 | 0.00 | 0.00 | 0.00 | 85 | 1019.8 |
| 20260901232015 | 77 | 160 | 0.0 | 0.0 | 0.00 | 0.00 | 0.00 | 85 | 1019.8 |
| 20260901231513 | 77 | 160 | 0.0 | 0.0 | 0.00 | 0.00 | 0.00 | 84 | 1019.6 |
| 20260901231012 | 77 | 160 | 0.0 | 0.0 | 0.00 | 0.00 | 0.00 | 84 | 1019.8 |
| 20260901230513 | 77 | 160 | 0.0 | 0.0 | 0.00 | 0.00 | 0.00 | 84 | 1019.6 |
| 20260901230012 | 77 | 160 | 0.0 | 0.0 | 0.00 | 0.00 | 0.00 | 84 | 1019.5 |
| 20260901225511 | 77 | 160 | 0.0 | 0.0 | 0.00 | 0.00 | 0.00 | 84 | 1019.7 |
| 20260901225011 | 77 | 160 | 0.0 | 0.0 | 0.00 | 0.00 | 0.00 | 84 | 1019.6 |
| 20260901224529 | 77 | 160 | 0.0 | 0.0 | 0.00 | 0.00 | 0.00 | 84 | 1019.7 |
| 20260901224010 | 77 | 160 | 0.0 | 0.0 | 0.00 | 0.00 | 0.00 | 84 | 1019.8 |
| 20260901223509 | 78 | 160 | 0.0 | 0.0 | 0.00 | 0.00 | 0.00 | 83 | 1019.7 |
| 20260901223009 | 78 | 160 | 0.0 | 0.0 | 0.00 | 0.00 | 0.00 | 83 | 1019.6 |
| 20260901222510 | 78 | 160 | 0.0 | 0.0 | 0.00 | 0.00 | 0.00 | 83 | 1019.7 |
| 20260901222009 | 78 | 160 | 0.0 | 0.0 | 0.00 | 0.00 | 0.00 | 83 | 1019.6 |
| 20260901221508 | 78 | 160 | 0.0 | 0.0 | 0.00 | 0.00 | 0.00 | 83 | 1019.6 |
| 20260901221007 | 78 | 160 | 0.0 | 0.0 | 0.00 | 0.00 | 0.00 | 83 | 1019.6 |
| 20260901220506 | 78 | 160 | 0.0 | 0.0 | 0.00 | 0.00 | 0.00 | 83 | 1019.7 |
| 20260901220005 | 78 | 159 | 0.0 | 0.0 | 0.00 | 0.00 | 0.00 | 83 | 1019.8 |
| 20260901215505 | 78 | 159 | 0.0 | 0.0 | 0.00 | 0.00 | 0.00 | 83 | 1019.8 |
| 20260901215006 | 78 | 160 | 0.0 | 0.0 | 0.00 | 0.00 | 0.00 | 83 | 1019.8 |
| 20260901214504 | 78 | 159 | 0.0 | 0.0 | 0.00 | 0.00 | 0.00 | 83 | 1019.9 |
| 20260901214004 | 78 | 159 | 0.0 | 0.0 | 0.00 | 0.00 | 0.00 | 83 | 1019.9 |
| 20260901213505 | 78 | 159 | 0.0 | 0.0 | 0.00 | 0.00 | 0.00 | 83 | 1019.9 |
| 20260901213005 | 78 | 159 | 0.0 | 0.0 | 0.00 | 0.00 | 0.00 | 83 | 1019.9 |
| 20260901212503 | 78 | 159 | 0.0 | 0.0 | 0.00 | 0.00 | 0.00 | 83 | 1020.0 |
| 20260901212006 | 78 | 159 | 0.0 | 0.0 | 0.00 | 0.00 | 0.00 | 83 | 1020.0 |
| 20260901211509 | 78 | 159 | 0.0 | 0.0 | 0.00 | 0.00 | 0.00 | 83 | 1020.1 |
| 20260901211002 | 78 | 159 | 0.0 | 0.0 | 0.00 | 0.00 | 0.00 | 83 | 1020.0 |
| 20260901210502 | 78 | 159 | 0.0 | 0.0 | 0.00 | 0.00 | 0.00 | 83 | 1020.0 |
| 20260901210002 | 78 | 159 | 0.0 | 0.0 | 0.00 | 0.00 | 0.00 | 83 | 1020.1 |
| 20260901205503 | 78 | 160 | 0.0 | 0.0 | 0.00 | 0.00 | 0.00 | 83 | 1020.0 |
| 20260901205005 | 78 | 159 | 0.0 | 0.0 | 0.00 | 0.00 | 0.00 | 83 | 1019.8 |
| 20260901204501 | 78 | 159 | 0.0 | 0.0 | 0.00 | 0.00 | 0.00 | 83 | 1019.8 |
| 20260901204100 | 78 | 159 | 0.0 | 0.0 | 0.00 | 0.00 | 0.00 | 83 | 1019.8 |
| 20260901203600 | 78 | 159 | 0.0 | 0.0 | 0.00 | 0.00 | 0.00 | 83 | 1019.6 |
| 20260901203104 | 78 | 159 | 0.0 | 0.0 | 0.00 | 0.00 | 0.00 | 83 | 1019.5 |
| 20260901202558 | 78 | 173 | 0.0 | 0.0 | 0.00 | 0.00 | 0.00 | 83 | 1019.3 |
| 20260901202101 | 78 | 173 | 0.0 | 0.0 | 0.00 | 0.00 | 0.00 | 83 | 1019.3 |
| 20260901201557 | 78 | 173 | 0.0 | 0.0 | 0.00 | 0.00 | 0.00 | 83 | 1019.2 |
| 20260901201058 | 78 | 173 | 0.0 | 0.0 | 0.00 | 0.00 | 0.00 | 83 | 1019.1 |
| 20260901200557 | 78 | 173 | 0.0 | 0.0 | 0.00 | 0.00 | 0.00 | 83 | 1019.1 |
| 20260901200108 | 78 | 173 | 0.0 | 0.0 | 0.00 | 0.00 | 0.00 | 83 | 1019.0 |
| 20260901195558 | 78 | 173 | 0.0 | 0.0 | 0.00 | 0.00 | 0.00 | 83 | 1019.1 |
| 20260901195059 | 78 | 173 | 0.0 | 0.0 | 0.00 | 0.00 | 0.00 | 83 | 1019.0 |
| 20260901194603 | 78 | 173 | 0.0 | 0.0 | 0.00 | 0.00 | 0.00 | 82 | 1018.9 |
| 20260901194056 | 78 | 173 | 0.0 | 0.0 | 0.00 | 0.00 | 0.00 | 82 | 1019.0 |
| 20260901193556 | 78 | 173 | 0.0 | 2.0 | 0.00 | 0.00 | 0.00 | 82 | 1018.8 |
| 20260901193109 | 78 | 173 | 0.0 | 2.0 | 0.00 | 0.00 | 0.00 | 82 | 1018.9 |
| 20260901192555 | 78 | 173 | 0.0 | 3.0 | 0.00 | 0.00 | 0.00 | 82 | 1018.7 |
| 20260901192055 | 78 | 173 | 1.0 | 3.0 | 0.00 | 0.00 | 0.00 | 81 | 1018.7 |
| 20260901191555 | 78 | 173 | 0.0 | 2.0 | 0.00 | 0.00 | 0.00 | 81 | 1018.6 |
| 20260901191055 | 78 | 173 | 0.0 | 2.0 | 0.00 | 0.00 | 0.00 | 81 | 1018.6 |
| 20260901190554 | 78 | 173 | 0.0 | 2.0 | 0.00 | 0.00 | 0.00 | 81 | 1018.5 |
| 20260901190106 | 78 | 173 | 0.0 | 3.0 | 0.00 | 0.00 | 0.00 | 81 | 1018.4 |
| 20260901185555 | 78 | 173 | 0.0 | 3.0 | 0.00 | 0.00 | 0.00 | 81 | 1018.3 |
| 20260901185054 | 78 | 173 | 0.0 | 4.0 | 0.00 | 0.00 | 0.00 | 81 | 1018.2 |
| 20260901184555 | 78 | 173 | 2.0 | 4.0 | 0.00 | 0.00 | 0.00 | 81 | 1018.1 |
| 20260901184053 | 78 | 167 | 1.0 | 4.0 | 0.00 | 0.00 | 0.00 | 81 | 1017.9 |
| 20260901183552 | 78 | 167 | 1.0 | 3.0 | 0.00 | 0.00 | 0.00 | 81 | 1017.9 |
| 20260901183054 | 78 | 167 | 0.0 | 3.0 | 0.00 | 0.00 | 0.00 | 81 | 1017.8 |
| 20260901182553 | 78 | 167 | 0.0 | 5.0 | 0.00 | 0.00 | 0.00 | 81 | 1017.7 |
| 20260901182053 | 78 | 167 | 1.0 | 5.0 | 0.00 | 0.00 | 0.00 | 80 | 1017.6 |
| 20260901181558 | 79 | 165 | 0.0 | 5.0 | 0.00 | 0.00 | 0.00 | 80 | 1017.5 |
| 20260901181052 | 79 | 153 | 1.0 | 3.0 | 0.00 | 0.00 | 0.00 | 80 | 1017.4 |
| 20260901180552 | 79 | 153 | 1.0 | 5.0 | 0.00 | 0.00 | 0.00 | 80 | 1017.4 |
| 20260901180052 | 79 | 153 | 2.0 | 5.0 | 0.00 | 0.00 | 0.00 | 79 | 1017.2 |
| 20260901175552 | 79 | 144 | 1.0 | 5.0 | 0.00 | 0.00 | 0.00 | 79 | 1017.2 |
| 20260901175052 | 79 | 182 | 2.0 | 5.0 | 0.00 | 0.00 | 0.00 | 79 | 1017.2 |
| 20260901174551 | 79 | 145 | 1.0 | 7.0 | 0.00 | 0.00 | 0.00 | 78 | 1017.1 |
| 20260901174052 | 79 | 167 | 3.0 | 7.0 | 0.00 | 0.00 | 0.00 | 78 | 1017.1 |
| 20260901173552 | 80 | 140 | 2.0 | 7.0 | 0.00 | 0.00 | 0.00 | 77 | 1017.2 |
| 20260901173059 | 80 | 125 | 3.0 | 7.0 | 0.00 | 0.00 | 0.00 | 77 | 1017.2 |
| 20260901172551 | 80 | 141 | 1.0 | 7.0 | 0.00 | 0.00 | 0.00 | 77 | 1017.2 |
| 20260901172051 | 80 | 126 | 3.0 | 7.0 | 0.00 | 0.00 | 0.00 | 76 | 1017.1 |
| 20260901171559 | 81 | 110 | 3.0 | 7.0 | 0.00 | 0.00 | 0.00 | 76 | 1017.0 |
| 20260901171049 | 81 | 165 | 2.0 | 9.0 | 0.00 | 0.00 | 0.00 | 76 | 1016.9 |
| 20260901170550 | 81 | 146 | 3.0 | 9.0 | 0.00 | 0.00 | 0.00 | 76 | 1017.0 |
| 20260901170053 | 81 | 137 | 4.0 | 8.0 | 0.00 | 0.00 | 0.00 | 75 | 1017.0 |
| 20260901165549 | 81 | 120 | 3.0 | 10.0 | 0.00 | 0.00 | 0.00 | 75 | 1017.0 |
| 20260901165049 | 82 | 130 | 3.0 | 10.0 | 0.00 | 0.00 | 0.00 | 74 | 1017.0 |
| 20260901164555 | 82 | 121 | 3.0 | 8.0 | 0.00 | 0.00 | 0.00 | 74 | 1017.0 |
| 20260901164049 | 82 | 119 | 3.0 | 8.0 | 0.00 | 0.00 | 0.00 | 74 | 1017.0 |
| 20260901163548 | 82 | 127 | 4.0 | 8.0 | 0.00 | 0.00 | 0.00 | 74 | 1017.0 |
| 20260901163049 | 82 | 144 | 3.0 | 7.0 | 0.00 | 0.00 | 0.00 | 74 | 1017.0 |
| 20260901162548 | 82 | 146 | 2.0 | 7.0 | 0.00 | 0.00 | 0.00 | 74 | 1017.1 |
| 20260901162047 | 82 | 124 | 2.0 | 8.0 | 0.00 | 0.00 | 0.00 | 74 | 1017.2 |
| 20260901161548 | 83 | 145 | 4.0 | 8.0 | 0.00 | 0.00 | 0.00 | 73 | 1017.2 |
| 20260901161049 | 83 | 121 | 3.0 | 9.0 | 0.00 | 0.00 | 0.00 | 73 | 1017.3 |
| 20260901160547 | 84 | 117 | 4.0 | 8.0 | 0.00 | 0.00 | 0.00 | 72 | 1017.3 |
| 20260901160047 | 85 | 137 | 4.0 | 8.0 | 0.00 | 0.00 | 0.00 | 71 | 1017.4 |
| 20260901155547 | 84 | 136 | 2.0 | 7.0 | 0.00 | 0.00 | 0.00 | 71 | 1017.4 |
| 20260901155047 | 84 | 167 | 3.0 | 7.0 | 0.00 | 0.00 | 0.00 | 72 | 1017.3 |
| 20260901154546 | 84 | 153 | 1.0 | 8.0 | 0.00 | 0.00 | 0.00 | 73 | 1017.5 |
| 20260901154046 | 84 | 141 | 3.0 | 8.0 | 0.00 | 0.00 | 0.00 | 72 | 1017.5 |
| 20260901153546 | 84 | 130 | 2.0 | 8.0 | 0.00 | 0.00 | 0.00 | 73 | 1017.6 |
| 20260901153046 | 83 | 140 | 2.0 | 8.0 | 0.00 | 0.00 | 0.00 | 73 | 1017.5 |
| 20260901152545 | 83 | 136 | 4.0 | 8.0 | 0.00 | 0.00 | 0.00 | 74 | 1017.5 |
| 20260901152045 | 83 | 146 | 3.0 | 10.0 | 0.00 | 0.00 | 0.00 | 74 | 1017.4 |
| 20260901151545 | 83 | 105 | 6.0 | 10.0 | 0.00 | 0.00 | 0.00 | 74 | 1017.5 |
| 20260901151045 | 82 | 193 | 4.0 | 9.0 | 0.00 | 0.00 | 0.00 | 75 | 1017.5 |
| 20260901150544 | 82 | 119 | 5.0 | 11.0 | 0.00 | 0.00 | 0.00 | 75 | 1017.6 |
| 20260901150045 | 82 | 158 | 6.0 | 11.0 | 0.00 | 0.00 | 0.00 | 75 | 1017.4 |
| 20260901145545 | 82 | 128 | 4.0 | 12.0 | 0.00 | 0.00 | 0.00 | 75 | 1017.3 |
| 20260901145043 | 83 | 109 | 6.0 | 12.0 | 0.00 | 0.00 | 0.00 | 74 | 1017.2 |
| 20260901144543 | 83 | 115 | 6.0 | 12.0 | 0.00 | 0.00 | 0.00 | 73 | 1017.3 |
| 20260901144046 | 83 | 146 | 4.0 | 9.0 | 0.00 | 0.00 | 0.00 | 73 | 1017.2 |
| 20260901143542 | 83 | 129 | 6.0 | 10.0 | 0.00 | 0.00 | 0.00 | 72 | 1017.2 |
| 20260901143045 | 83 | 146 | 3.0 | 10.0 | 0.00 | 0.00 | 0.00 | 73 | 1017.2 |
| 20260901142542 | 83 | 125 | 5.0 | 10.0 | 0.00 | 0.00 | 0.00 | 72 | 1017.2 |
| 20260901142042 | 83 | 128 | 4.0 | 12.0 | 0.00 | 0.00 | 0.00 | 73 | 1017.2 |
| 20260901141542 | 83 | 134 | 7.0 | 12.0 | 0.00 | 0.00 | 0.00 | 72 | 1017.4 |
| 20260901141044 | 83 | 150 | 3.0 | 12.0 | 0.00 | 0.00 | 0.00 | 73 | 1017.4 |
| 20260901140541 | 83 | 147 | 6.0 | 11.0 | 0.00 | 0.00 | 0.00 | 73 | 1017.6 |
| 20260901140044 | 83 | 136 | 7.0 | 11.0 | 0.00 | 0.00 | 0.00 | 73 | 1017.5 |
| 20260901135541 | 83 | 117 | 8.0 | 11.0 | 0.00 | 0.00 | 0.00 | 72 | 1017.6 |
| 20260901135041 | 83 | 157 | 6.0 | 12.0 | 0.00 | 0.00 | 0.00 | 72 | 1017.5 |
| 20260901134542 | 83 | 140 | 6.0 | 12.0 | 0.00 | 0.00 | 0.00 | 71 | 1017.6 |
| 20260901134043 | 83 | 123 | 5.0 | 15.0 | 0.00 | 0.00 | 0.00 | 71 | 1017.7 |
| 20260901133541 | 83 | 150 | 4.0 | 12.0 | 0.00 | 0.00 | 0.00 | 71 | 1017.7 |
| 20260901133040 | 84 | 146 | 7.0 | 12.0 | 0.00 | 0.00 | 0.00 | 71 | 1017.7 |
| 20260901132540 | 84 | 107 | 4.0 | 15.0 | 0.00 | 0.00 | 0.00 | 72 | 1017.8 |
| 20260901132040 | 83 | 96 | 6.0 | 15.0 | 0.00 | 0.00 | 0.00 | 71 | 1017.7 |
| 20260901131540 | 84 | 186 | 5.0 | 14.0 | 0.00 | 0.00 | 0.00 | 71 | 1017.8 |
| 20260901131039 | 84 | 176 | 6.0 | 14.0 | 0.00 | 0.00 | 0.00 | 71 | 1018.0 |
| 20260901130543 | 84 | 139 | 5.0 | 12.0 | 0.00 | 0.00 | 0.00 | 72 | 1017.8 |
| 20260901130038 | 84 | 125 | 7.0 | 14.0 | 0.00 | 0.00 | 0.00 | 71 | 1018.0 |
| 20260901125540 | 84 | 126 | 7.0 | 14.0 | 0.00 | 0.00 | 0.00 | 69 | 1017.8 |
| 20260901125039 | 85 | 97 | 7.0 | 14.0 | 0.00 | 0.00 | 0.00 | 68 | 1017.7 |
| 20260901124538 | 85 | 115 | 8.0 | 14.0 | 0.00 | 0.00 | 0.00 | 68 | 1017.7 |
| 20260901124042 | 85 | 119 | 6.0 | 11.0 | 0.00 | 0.00 | 0.00 | 68 | 1017.7 |
| 20260901123537 | 84 | 144 | 5.0 | 10.0 | 0.00 | 0.00 | 0.00 | 69 | 1017.7 |
| 20260901123036 | 84 | 149 | 4.0 | 14.0 | 0.00 | 0.00 | 0.00 | 70 | 1017.8 |
| 20260901122536 | 83 | 113 | 5.0 | 14.0 | 0.00 | 0.00 | 0.00 | 71 | 1017.9 |
| 20260901122036 | 84 | 122 | 6.0 | 11.0 | 0.00 | 0.00 | 0.00 | 71 | 1018.0 |
| 20260901121553 | 84 | 139 | 5.0 | 11.0 | 0.00 | 0.00 | 0.00 | 71 | 1018.1 |
| 20260901121038 | 84 | 118 | 8.0 | 11.0 | 0.00 | 0.00 | 0.00 | 71 | 1018.1 |
| 20260901120536 | 84 | 105 | 6.0 | 12.0 | 0.00 | 0.00 | 0.00 | 70 | 1018.2 |
| 20260901120033 | 83 | 134 | 6.0 | 12.0 | 0.00 | 0.00 | 0.00 | 71 | 1018.4 |
| 20260901115532 | 83 | 107 | 5.0 | 14.0 | 0.00 | 0.00 | 0.00 | 71 | 1018.4 |
| 20260901115032 | 83 | 182 | 5.0 | 14.0 | 0.00 | 0.00 | 0.00 | 71 | 1018.6 |
| 20260901114531 | 83 | 152 | 4.0 | 13.0 | 0.00 | 0.00 | 0.00 | 72 | 1018.6 |
| 20260901114033 | 82 | 109 | 6.0 | 13.0 | 0.00 | 0.00 | 0.00 | 71 | 1018.7 |
| 20260901113529 | 82 | 130 | 7.0 | 16.0 | 0.00 | 0.00 | 0.00 | 71 | 1018.8 |
| 20260901113032 | 82 | 132 | 8.0 | 16.0 | 0.00 | 0.00 | 0.00 | 70 | 1018.8 |
| 20260901112529 | 82 | 115 | 8.0 | 13.0 | 0.00 | 0.00 | 0.00 | 70 | 1018.8 |
| 20260901112029 | 82 | 161 | 7.0 | 13.0 | 0.00 | 0.00 | 0.00 | 70 | 1018.9 |
| 20260901111529 | 82 | 163 | 7.0 | 14.0 | 0.00 | 0.00 | 0.00 | 71 | 1018.8 |
| 20260901111033 | 81 | 202 | 5.0 | 14.0 | 0.00 | 0.00 | 0.00 | 71 | 1018.8 |
| 20260901110527 | 81 | 188 | 5.0 | 11.0 | 0.00 | 0.00 | 0.00 | 70 | 1018.9 |
| 20260901110033 | 81 | 157 | 4.0 | 9.0 | 0.00 | 0.00 | 0.00 | 71 | 1018.9 |
| 20260901105527 | 81 | 119 | 4.0 | 9.0 | 0.00 | 0.00 | 0.00 | 72 | 1019.0 |
| 20260901105030 | 80 | 149 | 2.0 | 11.0 | 0.00 | 0.00 | 0.00 | 72 | 1019.0 |
| 20260901104531 | 80 | 153 | 3.0 | 11.0 | 0.00 | 0.00 | 0.00 | 72 | 1019.1 |
| 20260901104026 | 80 | 105 | 6.0 | 10.0 | 0.00 | 0.00 | 0.00 | 72 | 1019.1 |
| 20260901103529 | 81 | 100 | 7.0 | 10.0 | 0.00 | 0.00 | 0.00 | 72 | 1019.2 |
| 20260901103028 | 81 | 144 | 5.0 | 13.0 | 0.00 | 0.00 | 0.00 | 72 | 1019.2 |
| 20260901102526 | 81 | 109 | 7.0 | 14.0 | 0.00 | 0.00 | 0.00 | 72 | 1019.2 |
| 20260901102025 | 81 | 104 | 7.0 | 14.0 | 0.00 | 0.00 | 0.00 | 72 | 1019.1 |
| 20260901101529 | 82 | 137 | 4.0 | 16.0 | 0.00 | 0.00 | 0.00 | 72 | 1019.2 |
| 20260901101028 | 82 | 129 | 6.0 | 13.0 | 0.00 | 0.00 | 0.00 | 72 | 1019.0 |
| 20260901100524 | 82 | 142 | 5.0 | 13.0 | 0.00 | 0.00 | 0.00 | 72 | 1019.0 |
| 20260901100026 | 83 | 141 | 7.0 | 13.0 | 0.00 | 0.00 | 0.00 | 71 | 1018.9 |
| 20260901095522 | 82 | 134 | 5.0 | 14.0 | 0.00 | 0.00 | 0.00 | 71 | 1018.9 |
| 20260901095021 | 82 | 146 | 3.0 | 11.0 | 0.00 | 0.00 | 0.00 | 71 | 1018.8 |
| 20260901094520 | 82 | 170 | 3.0 | 14.0 | 0.00 | 0.00 | 0.00 | 71 | 1018.8 |
| 20260901094020 | 82 | 159 | 5.0 | 14.0 | 0.00 | 0.00 | 0.00 | 70 | 1018.9 |
| 20260901093518 | 82 | 165 | 4.0 | 9.0 | 0.00 | 0.00 | 0.00 | 70 | 1018.8 |
| 20260901093017 | 82 | 154 | 2.0 | 10.0 | 0.00 | 0.00 | 0.00 | 70 | 1018.8 |
| 20260901092520 | 82 | 136 | 4.0 | 10.0 | 0.00 | 0.00 | 0.00 | 70 | 1018.9 |
| 20260901092017 | 82 | 131 | 5.0 | 10.0 | 0.00 | 0.00 | 0.00 | 70 | 1018.9 |
| 20260901091515 | 81 | 53 | 2.0 | 8.0 | 0.00 | 0.00 | 0.00 | 71 | 1018.8 |
| 20260901091014 | 81 | 150 | 3.0 | 8.0 | 0.00 | 0.00 | 0.00 | 72 | 1018.8 |
| 20260901090517 | 80 | 175 | 3.0 | 7.0 | 0.00 | 0.00 | 0.00 | 72 | 1018.7 |
| 20260901090016 | 81 | 146 | 2.0 | 10.0 | 0.00 | 0.00 | 0.00 | 71 | 1018.7 |
| 20260901085512 | 82 | 119 | 7.0 | 10.0 | 0.00 | 0.00 | 0.00 | 69 | 1018.6 |
| 20260901085012 | 82 | 97 | 2.0 | 7.0 | 0.00 | 0.00 | 0.00 | 68 | 1018.5 |
| 20260901084511 | 82 | 130 | 3.0 | 8.0 | 0.00 | 0.00 | 0.00 | 68 | 1018.4 |
| 20260901084010 | 82 | 121 | 3.0 | 8.0 | 0.00 | 0.00 | 0.00 | 67 | 1018.4 |
| 20260901083509 | 81 | 89 | 1.0 | 6.0 | 0.00 | 0.00 | 0.00 | 67 | 1018.3 |
| 20260901083007 | 81 | 112 | 2.0 | 8.0 | 0.00 | 0.00 | 0.00 | 67 | 1018.2 |
| 20260901082506 | 80 | 148 | 3.0 | 8.0 | 0.00 | 0.00 | 0.00 | 68 | 1018.1 |
| 20260901082005 | 79 | 142 | 2.0 | 4.0 | 0.00 | 0.00 | 0.00 | 66 | 1018.2 |
| 20260901081504 | 79 | 179 | 2.0 | 4.0 | 0.00 | 0.00 | 0.00 | 65 | 1018.2 |
| 20260901081005 | 80 | 180 | 2.0 | 4.0 | 0.00 | 0.00 | 0.00 | 64 | 1018.1 |
| 20260901080502 | 79 | 264 | 1.0 | 2.0 | 0.00 | 0.00 | 0.00 | 63 | 1018.1 |
| 20260901075559 | 78 | 360 | 0.0 | 1.0 | 0.00 | 0.00 | 0.00 | 65 | 1018.0 |
| 20260901075059 | 77 | 355 | 0.0 | 4.0 | 0.00 | 0.00 | 0.00 | 67 | 1018.0 |
| 20260901074557 | 76 | 355 | 2.0 | 4.0 | 0.00 | 0.00 | 0.00 | 67 | 1018.1 |
| 20260901074055 | 75 | 337 | 1.0 | 3.0 | 0.00 | 0.00 | 0.00 | 67 | 1018.3 |